Regional Weather Roundup
Issued by NWS

Home | Current Version | Previous Version | Text Only | Print | Product List | Glossary On
Versions: 1 2 3 4 5 6 7 8 9 10 11 12 13 14 15 16 17 18 19 20 21 22 23 24 25 26 27 28 29 30 31 32 33 34 35 36 37 38 39 40 41 42 43 44 45 46 47 48 49 50
000
ASUS42 KTBW 231717
RWRFL
FLORIDA REGIONAL WEATHER ROUNDUP
NATIONAL WEATHER SERVICE TAMPA BAY RUSKIN FL
100 PM EDT SAT JUL 23 2016

NOTE: "FAIR" INDICATES FEW OR NO CLOUDS BELOW 12,000 FEET WITH NO
SIGNIFICANT WEATHER AND/OR OBSTRUCTIONS TO VISIBILITY.

FLZ001>010-012>015-112-114-115-231800-
PANHANDLE FLORIDA

CITY           SKY/WX    TMP DP  RH WIND       PRES   REMARKS
PENSACOLA      MOSUNNY   88  76  67 SE12      30.02F HX  99
PENSACOLA NAS  PTSUNNY   90  74  59 CALM      30.01F HX  99
MILTON NAS     CLOUDY    89  76  65 SE12      30.02  HX 100
CRESTVIEW      CLOUDY    87  74  64 S8        30.04S HX  95
DUKE FIELD     FAIR      88  74  62 VRB5      30.02S HX  96
VALPARAISO     MOSUNNY   86  74  67 VRB3      30.03S
MARY ESTHER    MOSUNNY   87  72  60 S7        30.02S
TRI COUNTY     PTSUNNY  102  74  40 CALM      30.03F HX 114
PANAMA CITY    FAIR      89  75  63 SE6       30.02S HX  99
TYNDALL AFB    MOSUNNY   87  75  66 VRB6      30.03S HX  96
APALACHICOLA   SUNNY     89  77  67 SE10      30.03S HX 101

STATION/POSITION SKY/WX   TEMP    WIND        PRES    WAVE   SWELL
                          AIR SEA DIR/SP/G            HT/PER HT/PER
                          (F)     (DEG/KT/KT) (MB)    (FT/S) (FT/S)
30.1N   87.6W              83 89  110/  6/  8 1016.7F   1/ 5   2/ 5
29.2N   88.2W              82 88  240/  8/ 10 1016.5S
28.8N   86.0W              81 88  120/ 12/ 16 1017.5R   1/ 4
PANAMA CITY BEAC           85 88  150/ 11/ 12 1017.2F
TOWER C                    84      90/  8/  9 1017.7R
28.5N   84.5W              85 88  200/  6/  8 1017.2R   1/ 4

$$
FLZ011-016>038-118-127-128-134-139-239-231800-
NORTH FLORIDA

CITY           SKY/WX    TMP DP  RH WIND       PRES   REMARKS
MARIANNA       MOSUNNY   89  73  59 VRB3      30.02S HX  97
TALLAHASSEE    MOSUNNY   91  70  49 CALM      30.04S HX  96
PERRY          SUNNY     90  74  59 SW5       30.04F HX  99
LIVE OAK       FAIR      91  73  55 CALM      30.05F HX 100
CROSS CITY       N/A     92  73  53 NE5       30.03F HX 100
LAKE CITY      FAIR      88  73  62 NE6       30.05S HX  96
GAINESVILLE    SUNNY     91  69  48 VRB6      30.05F HX  96
WILLISTON      FAIR      93  73  52 SE6       30.05F HX 102
PALATKA        FAIR      91  72  52 SE7       30.05F HX  98
MAYPORT NAS    SUNNY     89  72  56 E10       30.04F HX  96
JACKSONVILLE   MOSUNNY   91  69  48 CALM      30.03F HX  96
JAX NAS        PTSUNNY   92  68  45 E3        30.04F HX  96
JAX CECIL      PTSUNNY   91  72  52 CALM      30.03F HX  98
FERNANDINA BEA FAIR      91  75  59 E8        30.03F HX 102
ST AUGUSTINE   MOSUNNY   89  74  60 E10       30.06F HX  98
PALM COAST     SUNNY     90  72  55 E8        30.05S HX  96

STATION/POSITION SKY/WX   TEMP    WIND        PRES    WAVE   SWELL
                          AIR SEA DIR/SP/G            HT/PER HT/PER
                          (F)     (DEG/KT/KT) (MB)    (FT/S) (FT/S)
SHELL POINT                87     130/  6/  8 1016.1
KEATON BEACH               85     230/  6/  7 1017.0F
CEDAR KEY                  83     130/  7/  8 1018.1R
FERNANDINA                 90 88  280/  3/  4 1017.7F
30.7N   81.3W                 87                N/A     2/ 9
MAYPORT                    85 88   60/  7/  9 1018.2R
31.4N   80.9W              85 87  220/  6/  8 1017.3F   2/ 9   2/ 9
ST AUGUSTINE               83 87  100/  9/ 10 1018.6F

$$
FLZ040-043>046-052-053-057-058-063-144-231800-
INTERIOR CENTRAL FLORIDA

CITY           SKY/WX    TMP DP  RH WIND       PRES   REMARKS
OCALA          MOSUNNY   88  68  51 S7        30.05F
THE VILLAGES     N/A     90  72  55 CALM      29.95F HX  96
LEESBURG       SUNNY     89  68  49 VRB3      30.06F
SANFORD        SUNNY     90  68  48 S5        30.05F
ORLANDO EXEC   MOSUNNY   89  71  55 CALM      30.05F HX  95
ORLANDO INTL   PTSUNNY   88  70  55 CALM      30.05F
KISSIMMEE      MOSUNNY   88  73  61 VRB5      30.06F HX  95
WINTER HAVEN   MOSUNNY   88  70  55 CALM      30.07F
LAKELAND       PTSUNNY   88  75  66 CALM      30.06F HX  97
BARTOW         MOSUNNY   84  68  58 SE3       30.06F
OKEECHOBEE     MOSUNNY   88  73  62 W3        30.05F HX  96

$$
FLZ041-047-054-059-064-141-147-231800-
EAST CENTRAL FLORIDA

CITY           SKY/WX    TMP DP  RH WIND       PRES   REMARKS
ORMOND BEACH   MOSUNNY   90  72  55 E9        30.05S HX  96
DAYTONA BEACH  MOSUNNY   91  73  55 E10       30.05S HX  99
NEW SMYRNA BEA MOSUNNY   86  73  66 NE9       30.07S
JFK SPACE CTR  PTSUNNY   88  73  62 E8        30.04F HX  96
TITUSVILLE     MOSUNNY   90  68  48 E9        30.05F
CAPE CANAVERAL MOSUNNY   89  72  58 SE8       30.04F HX  95
PATRICK AFB    SUNNY     88  74  64 NE8       30.05F HX  96
MELBOURNE      MOSUNNY   90  72  55 E9        30.05F HX  97
VERO BEACH     MOSUNNY   89  73  59 E8        30.05F HX  97
FT PIERCE      MOSUNNY   88  75  65 E6        30.05F HX  97
STUART         MOSUNNY   90  73  58 NE12      30.06F HX  98

STATION/POSITION SKY/WX   TEMP    WIND        PRES    WAVE   SWELL
                          AIR SEA DIR/SP/G            HT/PER HT/PER
                          (F)     (DEG/KT/KT) (MB)    (FT/S) (FT/S)
28.5N   80.2W              83 86   CALM  /  2 1018.5R
28.9N   78.5W              84 87   30/  4/  6 1018.2R
TRIDENT PIER               88 87  150/  7/  9 1018.2R
28.4N   80.5W                 87                N/A     2/ 9
27.5N   80.2W                 87                N/A     1/ 9

$$
FLZ050-056-061-142-242-148-248-149-249-151-251-155-255-
160-260-231800-
WEST CENTRAL FLORIDA

CITY           SKY/WX    TMP DP  RH WIND       PRES   REMARKS
CRYSTAL RIVER  FAIR      90  72  55 CALM      30.04F HX  96
INVERNESS      FAIR      90  73  58 NE5       30.05F HX  98
BROOKSVILLE    MOSUNNY   88  73  61 VRB3      30.05F HX  95
ZEPHYRHILLS    FAIR      82  65  56 E5        30.06S
CLEARWATER AIR LGT RAIN  82  72  69 CALM      30.05S
ST PETE CLEARW CLOUDY    86  74  67 E9        30.04S
TAMPA INTL     PTSUNNY   86  76  71 SW10      30.05S HX  96
TAMPA EXEC     MOSUNNY   91  73  55 CALM      30.05F HX 100
PLANT CITY       N/A    N/A N/A N/A MISG        N/A
MACDILL AFB    MOSUNNY   89  79  72 VRB3      30.05S HX 104
PETER O KNIGHT MOSUNNY   90  77  66 S5        30.05S HX 102
ST PETERSBURG  MOSUNNY   85  74  69 SE8       30.03S
SARASOTA       MOSUNNY   89  71  55 SW7       30.03F HX  95
VENICE         NOT AVBL

STATION/POSITION SKY/WX   TEMP    WIND        PRES    WAVE   SWELL
                          AIR SEA DIR/SP/G            HT/PER HT/PER
                          (F)     (DEG/KT/KT) (MB)    (FT/S) (FT/S)
27.3N   84.2W                 86                N/A     2/ 4
CLEARWATER BEACH           81 87  160/  6/ 11 1017.7R
MIDDLE TAMPA BAY                  200/  2/  2 1018.0R
VENICE                     85 87  220/  6/  7 1017.0F

$$
FLZ066-069-070-075>078-162-262-165-265-231800-
SOUTHWEST FLORIDA AND KEYS

CITY           SKY/WX    TMP DP  RH WIND       PRES   REMARKS
PUNTA GORDA    MOSUNNY   88  70  55 CALM      30.06F
FT MYERS       MOSUNNY   90  72  55 VRB3      30.03F HX  97
SOUTHWEST INTL MOSUNNY   88  72  58 E3        30.04F
NAPLES         PTSUNNY   88  73  61 W8        30.04F HX  95
MARCO ISLAND   CLOUDY    88  72  58 CALM      30.05S
MARATHON       MOSUNNY   88  77  69 VRB5      30.04S HX 100
KEY WEST NAS   PTSUNNY   88  77  69 SE9       30.04S HX 100
KEY WEST INTL  SUNNY     88  77  69 SE9       30.04S HX 100

STATION/POSITION SKY/WX   TEMP    WIND        PRES    WAVE   SWELL
                          AIR SEA DIR/SP/G            HT/PER HT/PER
                          (F)     (DEG/KT/KT) (MB)    (FT/S) (FT/S)
NAPLES                        85              1017.4R
26.0N   85.6W              83 87  170/  6/  8 1017.4R   1/ 3
DRY TORTUGAS               84     120/  9/  9 1017.4S
SAND KEY                   83                 1017.8S
LONG KEY                   84 86   30/  2/  3 1017.7R
MOLASSES REEF              84 86   80/  3/  4 1017.9S

$$
FLZ067-068-071>074-168-172>174-231800-
SOUTHEAST FLORIDA

CITY           SKY/WX    TMP DP  RH WIND       PRES   REMARKS
W PALM BEACH   TSTM      87  73  62 VRB7      30.06R
BOCA RATON     MOSUNNY   90  75  62 SE10G16   30.04F HX 100
FT LAUDER-EXEC MOSUNNY   86  74  67 E10       30.04S
FT LAUDERDALE  PTSUNNY   86  74  67 E10       30.04S THUNDER
POMPANO BEACH  MOSUNNY   89  75  63 E13       30.04F HX  99
PEMBROKE PINES HVY RAIN  79  70  74 E10G35    30.07R
OPA LOCKA      CLOUDY    86  73  65 NE12      30.05S THUNDER
MIAMI          PTSUNNY   87  73  62 CALM      30.04F
WEST KENDALL   SUNNY     87  73  62 SE6       30.04F
HOMESTEAD      MOSUNNY   88  73  61 E6        30.04S HX  95

STATION/POSITION SKY/WX   TEMP    WIND        PRES    WAVE   SWELL
                          AIR SEA DIR/SP/G            HT/PER HT/PER
                          (F)     (DEG/KT/KT) (MB)    (FT/S) (FT/S)
PORT EVERGLADES            86      80/  5/  6 1017.7R
VIRGINIA KEY               83 88   80/  4/  5 1018.0R
LAKE WORTH                         60/  7/  8   N/A
FOWEY ROCKS                83 84   30/  3C1F1M1C2F2M2C3F3C4F4M3C5F5M4C6F6M5C7F7M6C8!


USA.gov is the U.S. government's official web portal to all federal, state and local government web resources and services.